Location: Mannheim
(49.4880°N, 8.4650°E)
Time: 05:01:32
(UTC+02:00)

ISS - Pass Details

Date: 11 July 2024
Orbit: 409 x 423 km, 51.6° (Epoch: 24 July)

Event Time Altitude Azimuth Distance (km) Brightness Sun altitude
Rises 00:36:07 0° 266° (W) 2,336 0.2 -17.4°
Reaches altitude 10° 00:38:13 10° 270° (W) 1,477 -0.8 -17.5°
Maximum altitude 00:41:30 61° 352° (N) 470 -3.3 -17.6°
Drops below altitude 10° 00:44:48 10° 74° (ENE) 1,484 -0.9 -17.7°
Sets 00:46:55 0° 78° (ENE) 2,349 0.1 -17.8°
